Year,Month,Day,Hour,Minute,Value (Times are PST for temperature in C)
2008,05,16,00,00,11.30
2008,05,16,00,01,11.30
2008,05,16,00,02,11.30
2008,05,16,00,03,11.30
2008,05,16,00,04,11.30
2008,05,16,00,05,11.20
2008,05,16,00,06,11.20
2008,05,16,00,07,11.20
2008,05,16,00,08,11.20
2008,05,16,00,09,11.20
2008,05,16,00,10,11.20
2008,05,16,00,11,11.20
2008,05,16,00,12,11.20
2008,05,16,00,13,11.20
2008,05,16,00,14,11.20
2008,05,16,00,15,11.20
2008,05,16,00,16,11.20
2008,05,16,00,17,11.10
2008,05,16,00,18,11.10
2008,05,16,00,19,11.10
2008,05,16,00,20,11.10
2008,05,16,00,21,11.10
2008,05,16,00,22,11.20
2008,05,16,00,23,11.20
2008,05,16,00,24,11.20
2008,05,16,00,25,11.10
2008,05,16,00,26,11.10
2008,05,16,00,27,11.00
2008,05,16,00,28,10.90
2008,05,16,00,29,10.80
2008,05,16,00,30,10.80
2008,05,16,00,31,10.70
2008,05,16,00,32,10.60
2008,05,16,00,33,10.60
2008,05,16,00,34,10.40
2008,05,16,00,35,10.40
2008,05,16,00,36,10.40
2008,05,16,00,37,10.30
2008,05,16,00,38,10.30
2008,05,16,00,39,10.30
2008,05,16,00,40,10.30
2008,05,16,00,41,10.40
2008,05,16,00,42,10.40
2008,05,16,00,43,10.40
2008,05,16,00,44,10.50
2008,05,16,00,45,10.60
2008,05,16,00,46,10.60
2008,05,16,00,47,10.60
2008,05,16,00,48,10.60
2008,05,16,00,49,10.60
2008,05,16,00,50,10.60
2008,05,16,00,51,10.60
2008,05,16,00,52,10.60
2008,05,16,00,53,10.60
2008,05,16,00,54,10.60
2008,05,16,00,55,10.60
2008,05,16,00,56,10.60
2008,05,16,00,57,10.50
2008,05,16,00,58,10.40
2008,05,16,00,59,10.40
2008,05,16,01,00,10.40
2008,05,16,01,01,10.40
2008,05,16,01,02,10.40
2008,05,16,01,03,10.40
2008,05,16,01,04,10.40
2008,05,16,01,05,10.40
2008,05,16,01,06,10.40
2008,05,16,01,07,10.40
2008,05,16,01,08,10.40
2008,05,16,01,09,10.60
2008,05,16,01,10,10.60
2008,05,16,01,11,10.60
2008,05,16,01,12,10.60
2008,05,16,01,13,10.60
2008,05,16,01,14,10.60
2008,05,16,01,15,10.60
2008,05,16,01,16,10.60
2008,05,16,01,17,10.60
2008,05,16,01,18,10.60
2008,05,16,01,19,10.60
2008,05,16,01,20,10.60
2008,05,16,01,21,10.60
2008,05,16,01,22,10.50
2008,05,16,01,23,10.40
2008,05,16,01,24,10.40
2008,05,16,01,25,10.40
2008,05,16,01,26,10.40
2008,05,16,01,27,10.40
2008,05,16,01,28,10.40
2008,05,16,01,29,10.40
2008,05,16,01,30,10.40
2008,05,16,01,31,10.30
2008,05,16,01,32,10.20
2008,05,16,01,33,10.20
2008,05,16,01,34,10.20
2008,05,16,01,35,10.20
2008,05,16,01,36,10.20
2008,05,16,01,37,10.20
2008,05,16,01,38,10.20
2008,05,16,01,39,10.20
2008,05,16,01,40,10.20
2008,05,16,01,41,10.20
2008,05,16,01,42,10.10
2008,05,16,01,43,10.10
2008,05,16,01,44,10.10
2008,05,16,01,45,10.10
2008,05,16,01,46,10.10
2008,05,16,01,47,10.10
2008,05,16,01,48,10.10
2008,05,16,01,49,10.10
2008,05,16,01,50,10.10
2008,05,16,01,51,10.10
2008,05,16,01,52,10.10
2008,05,16,01,53,9.90
2008,05,16,01,54,9.90
2008,05,16,01,55,9.90
2008,05,16,01,56,9.90
2008,05,16,01,57,9.90
2008,05,16,01,58,9.90
2008,05,16,01,59,9.90
2008,05,16,02,00,9.90
2008,05,16,02,01,9.90
2008,05,16,02,02,9.90
2008,05,16,02,03,9.90
2008,05,16,02,04,9.90
2008,05,16,02,05,9.90
2008,05,16,02,06,9.90
2008,05,16,02,07,9.90
2008,05,16,02,08,9.90
2008,05,16,02,09,9.80
2008,05,16,02,10,9.80
2008,05,16,02,11,9.80
2008,05,16,02,12,9.80
2008,05,16,02,13,9.70
2008,05,16,02,14,9.70
2008,05,16,02,15,9.70
2008,05,16,02,16,9.70
2008,05,16,02,17,9.70
2008,05,16,02,18,9.70
2008,05,16,02,19,9.70
2008,05,16,02,20,9.70
2008,05,16,02,21,9.70
2008,05,16,02,22,9.70
2008,05,16,02,23,9.70
2008,05,16,02,24,9.70
2008,05,16,02,25,9.70
2008,05,16,02,26,9.70
2008,05,16,02,27,9.70
2008,05,16,02,28,9.70
2008,05,16,02,29,9.70
2008,05,16,02,30,9.70
2008,05,16,02,31,9.70
2008,05,16,02,32,9.60
2008,05,16,02,33,9.60
2008,05,16,02,34,9.60
2008,05,16,02,35,9.60
2008,05,16,02,36,9.60
2008,05,16,02,37,9.70
2008,05,16,02,38,9.70
2008,05,16,02,39,9.70
2008,05,16,02,40,9.70
2008,05,16,02,41,9.70
2008,05,16,02,42,9.70
2008,05,16,02,43,9.70
2008,05,16,02,44,9.70
2008,05,16,02,45,9.70
2008,05,16,02,46,9.70
2008,05,16,02,47,9.70
2008,05,16,02,48,9.70
2008,05,16,02,49,9.70
2008,05,16,02,50,9.70
2008,05,16,02,51,9.70
2008,05,16,02,52,9.70
2008,05,16,02,53,9.60
2008,05,16,02,54,9.60
2008,05,16,02,55,9.60
2008,05,16,02,56,9.50
2008,05,16,02,57,9.50
2008,05,16,02,58,9.40
2008,05,16,02,59,9.40
2008,05,16,03,00,9.40
2008,05,16,03,01,9.40
2008,05,16,03,02,9.40
2008,05,16,03,03,9.40
2008,05,16,03,04,9.40
2008,05,16,03,05,9.50
2008,05,16,03,06,9.50
2008,05,16,03,07,9.50
2008,05,16,03,08,9.60
2008,05,16,03,09,9.60
2008,05,16,03,10,9.70
2008,05,16,03,11,9.70
2008,05,16,03,12,9.70
2008,05,16,03,13,9.70
2008,05,16,03,14,9.70
2008,05,16,03,15,9.70
2008,05,16,03,16,9.70
2008,05,16,03,17,9.70
2008,05,16,03,18,9.60
2008,05,16,03,19,9.60
2008,05,16,03,20,9.60
2008,05,16,03,21,9.50
2008,05,16,03,22,9.50
2008,05,16,03,23,9.50
2008,05,16,03,24,9.50
2008,05,16,03,25,9.40
2008,05,16,03,26,9.40
2008,05,16,03,27,9.40
2008,05,16,03,28,9.40
2008,05,16,03,29,9.30
2008,05,16,03,30,9.20
2008,05,16,03,31,9.20
2008,05,16,03,32,9.20
2008,05,16,03,33,9.20
2008,05,16,03,34,9.20
2008,05,16,03,35,9.20
2008,05,16,03,36,9.20
2008,05,16,03,37,9.30
2008,05,16,03,38,9.30
2008,05,16,03,39,9.40
2008,05,16,03,40,9.40
2008,05,16,03,41,9.50
2008,05,16,03,42,9.70
2008,05,16,03,43,9.80
2008,05,16,03,44,9.90
2008,05,16,03,45,9.90
2008,05,16,03,46,9.90
2008,05,16,03,47,9.90
2008,05,16,03,48,9.90
2008,05,16,03,49,9.80
2008,05,16,03,50,9.70
2008,05,16,03,51,9.70
2008,05,16,03,52,9.70
2008,05,16,03,53,9.60
2008,05,16,03,54,9.60
2008,05,16,03,55,9.50
2008,05,16,03,56,9.50
2008,05,16,03,57,9.40
2008,05,16,03,58,9.40
2008,05,16,03,59,9.30
2008,05,16,04,00,9.30
2008,05,16,04,01,9.30
2008,05,16,04,02,9.30
2008,05,16,04,03,9.30
2008,05,16,04,04,9.30
2008,05,16,04,05,9.30
2008,05,16,04,06,9.30
2008,05,16,04,07,9.30
2008,05,16,04,08,9.30
2008,05,16,04,09,9.40
2008,05,16,04,10,9.40
2008,05,16,04,11,9.40
2008,05,16,04,12,9.40
2008,05,16,04,13,9.40
2008,05,16,04,14,9.40
2008,05,16,04,15,9.40
2008,05,16,04,16,9.50
2008,05,16,04,17,9.50
2008,05,16,04,18,9.50
2008,05,16,04,19,9.50
2008,05,16,04,20,9.50
2008,05,16,04,21,9.50
2008,05,16,04,22,9.50
2008,05,16,04,23,9.50
2008,05,16,04,24,9.50
2008,05,16,04,25,9.50
2008,05,16,04,26,9.50
2008,05,16,04,27,9.60
2008,05,16,04,28,9.60
2008,05,16,04,29,9.60
2008,05,16,04,30,9.60
2008,05,16,04,31,9.60
2008,05,16,04,32,9.70
2008,05,16,04,33,9.70
2008,05,16,04,34,9.70
2008,05,16,04,35,9.70
2008,05,16,04,36,9.70
2008,05,16,04,37,9.70
2008,05,16,04,38,9.70
2008,05,16,04,39,9.60
2008,05,16,04,40,9.60
2008,05,16,04,41,9.60
2008,05,16,04,42,9.60
2008,05,16,04,43,9.50
2008,05,16,04,44,9.50
2008,05,16,04,45,9.50
2008,05,16,04,46,9.40
2008,05,16,04,47,9.40
2008,05,16,04,48,9.40
2008,05,16,04,49,9.40
2008,05,16,04,50,9.40
2008,05,16,04,51,9.30
2008,05,16,04,52,9.30
2008,05,16,04,53,9.30
2008,05,16,04,54,9.30
2008,05,16,04,55,9.30
2008,05,16,04,56,9.30
2008,05,16,04,57,9.30
2008,05,16,04,58,9.20
2008,05,16,04,59,9.20
2008,05,16,05,00,9.20
2008,05,16,05,01,9.20
2008,05,16,05,02,9.20
2008,05,16,05,03,9.20
2008,05,16,05,04,9.20
2008,05,16,05,05,9.20
2008,05,16,05,06,9.20
2008,05,16,05,07,9.20
2008,05,16,05,08,9.20
2008,05,16,05,09,9.20
2008,05,16,05,10,9.20
2008,05,16,05,11,9.30
2008,05,16,05,12,9.30
2008,05,16,05,13,9.40
2008,05,16,05,14,9.40
2008,05,16,05,15,9.40
2008,05,16,05,16,9.50
2008,05,16,05,17,9.50
2008,05,16,05,18,9.50
2008,05,16,05,19,9.50
2008,05,16,05,20,9.60
2008,05,16,05,21,9.60
2008,05,16,05,22,9.60
2008,05,16,05,23,9.60
2008,05,16,05,24,9.60
2008,05,16,05,25,9.70
2008,05,16,05,26,9.70
2008,05,16,05,27,9.70
2008,05,16,05,28,9.80
2008,05,16,05,29,9.80
2008,05,16,05,30,9.80
2008,05,16,05,31,9.90
2008,05,16,05,32,9.90
2008,05,16,05,33,9.90
2008,05,16,05,34,9.90
2008,05,16,05,35,9.90
2008,05,16,05,36,9.90
2008,05,16,05,37,10.00
2008,05,16,05,38,10.10
2008,05,16,05,39,10.10
2008,05,16,05,40,10.10
2008,05,16,05,41,10.10
2008,05,16,05,42,10.10
2008,05,16,05,43,10.20
2008,05,16,05,44,10.20
2008,05,16,05,45,10.20
2008,05,16,05,46,10.20
2008,05,16,05,47,10.20
2008,05,16,05,48,10.20
2008,05,16,05,49,10.10
2008,05,16,05,50,10.10
2008,05,16,05,51,10.10
2008,05,16,05,52,10.00
2008,05,16,05,53,9.90
2008,05,16,05,54,9.90
2008,05,16,05,55,9.90
2008,05,16,05,56,9.90
2008,05,16,05,57,9.80
2008,05,16,05,58,9.80
2008,05,16,05,59,9.80
2008,05,16,06,00,9.80
2008,05,16,06,01,9.80
2008,05,16,06,02,9.80
2008,05,16,06,03,9.80
2008,05,16,06,04,9.80
2008,05,16,06,05,9.80
2008,05,16,06,06,9.80
2008,05,16,06,07,9.80
2008,05,16,06,08,9.80
2008,05,16,06,09,9.80
2008,05,16,06,10,9.80
2008,05,16,06,11,9.90
2008,05,16,06,12,9.90
2008,05,16,06,13,9.90
2008,05,16,06,14,10.00
2008,05,16,06,15,10.10
2008,05,16,06,16,10.20
2008,05,16,06,17,10.30
2008,05,16,06,18,10.50
2008,05,16,06,19,10.70
2008,05,16,06,20,10.80
2008,05,16,06,21,10.90
2008,05,16,06,22,10.90
2008,05,16,06,23,10.90
2008,05,16,06,24,11.00
2008,05,16,06,25,11.10
2008,05,16,06,26,11.10
2008,05,16,06,27,11.20
2008,05,16,06,28,11.20
2008,05,16,06,29,11.20
2008,05,16,06,30,11.20
2008,05,16,06,31,11.20
2008,05,16,06,32,11.40
2008,05,16,06,33,11.40
2008,05,16,06,34,11.60
2008,05,16,06,35,11.60
2008,05,16,06,36,11.70
2008,05,16,06,37,11.70
2008,05,16,06,38,11.70
2008,05,16,06,39,11.60
2008,05,16,06,40,11.60
2008,05,16,06,41,11.60
2008,05,16,06,42,11.60
2008,05,16,06,43,11.60
2008,05,16,06,44,11.60
2008,05,16,06,45,11.60
2008,05,16,06,46,11.60
2008,05,16,06,47,11.60
2008,05,16,06,48,11.60
2008,05,16,06,49,11.60
2008,05,16,06,50,11.70
2008,05,16,06,51,11.70
2008,05,16,06,52,11.80
2008,05,16,06,53,11.80
2008,05,16,06,54,11.90
2008,05,16,06,55,12.00
2008,05,16,06,56,12.00
2008,05,16,06,57,12.00
2008,05,16,06,58,12.00
2008,05,16,06,59,12.00
2008,05,16,07,00,12.10
2008,05,16,07,01,12.40
2008,05,16,07,02,12.50
2008,05,16,07,03,12.50
2008,05,16,07,04,12.60
2008,05,16,07,05,12.70
2008,05,16,07,06,12.80
2008,05,16,07,07,12.90
2008,05,16,07,08,13.00
2008,05,16,07,09,13.10
2008,05,16,07,10,13.20
2008,05,16,07,11,13.30
2008,05,16,07,12,13.30
2008,05,16,07,13,13.30
2008,05,16,07,14,13.40
2008,05,16,07,15,13.50
2008,05,16,07,16,13.50
2008,05,16,07,17,13.60
2008,05,16,07,18,13.70
2008,05,16,07,19,13.70
2008,05,16,07,20,13.80
2008,05,16,07,21,13.90
2008,05,16,07,22,14.00
2008,05,16,07,23,14.10
2008,05,16,07,24,14.20
2008,05,16,07,25,14.20
2008,05,16,07,26,14.30
2008,05,16,07,27,14.40
2008,05,16,07,28,14.40
2008,05,16,07,29,14.50
2008,05,16,07,30,14.50
2008,05,16,07,31,14.60
2008,05,16,07,32,14.60
2008,05,16,07,33,14.70
2008,05,16,07,34,14.70
2008,05,16,07,35,14.80
2008,05,16,07,36,14.80
2008,05,16,07,37,14.90
2008,05,16,07,38,14.90
2008,05,16,07,39,15.00
2008,05,16,07,40,15.00
2008,05,16,07,41,15.10
2008,05,16,07,42,15.10
2008,05,16,07,43,15.20
2008,05,16,07,44,15.20
2008,05,16,07,45,15.20
2008,05,16,07,46,15.30
2008,05,16,07,47,15.40
2008,05,16,07,48,15.40
2008,05,16,07,49,15.50
2008,05,16,07,50,15.60
2008,05,16,07,51,15.60
2008,05,16,07,52,15.60
2008,05,16,07,53,15.70
2008,05,16,07,54,15.80
2008,05,16,07,55,15.80
2008,05,16,07,56,15.80
2008,05,16,07,57,15.90
2008,05,16,07,58,15.90
2008,05,16,07,59,15.90
2008,05,16,08,00,16.00
2008,05,16,08,01,16.10
2008,05,16,08,02,16.10
2008,05,16,08,03,16.20
2008,05,16,08,04,16.20
2008,05,16,08,05,16.20
2008,05,16,08,06,16.30
2008,05,16,08,07,16.30
2008,05,16,08,08,16.30
2008,05,16,08,09,16.30
2008,05,16,08,10,16.30
2008,05,16,08,11,16.40
2008,05,16,08,12,16.40
2008,05,16,08,13,16.40
2008,05,16,08,14,16.60
2008,05,16,08,15,16.60
2008,05,16,08,16,16.60
2008,05,16,08,17,16.60
2008,05,16,08,18,16.60
2008,05,16,08,19,16.50
2008,05,16,08,20,16.50
2008,05,16,08,21,16.50
2008,05,16,08,22,16.40
2008,05,16,08,23,16.40
2008,05,16,08,24,16.40
2008,05,16,08,25,16.40
2008,05,16,08,26,16.40
2008,05,16,08,27,16.40
2008,05,16,08,28,16.40
2008,05,16,08,29,16.60
2008,05,16,08,30,16.60
2008,05,16,08,31,16.70
2008,05,16,08,32,16.70
2008,05,16,08,33,16.70
2008,05,16,08,34,16.70
2008,05,16,08,35,16.70
2008,05,16,08,36,16.80
2008,05,16,08,37,16.90
2008,05,16,08,38,16.90
2008,05,16,08,39,16.90
2008,05,16,08,40,17.00
2008,05,16,08,41,17.00
2008,05,16,08,42,17.00
2008,05,16,08,43,17.00
2008,05,16,08,44,17.00
2008,05,16,08,45,17.00
2008,05,16,08,46,17.00
2008,05,16,08,47,17.00
2008,05,16,08,48,16.90
2008,05,16,08,49,17.00
2008,05,16,08,50,17.10
2008,05,16,08,51,17.10
2008,05,16,08,52,17.10
2008,05,16,08,53,17.00
2008,05,16,08,54,17.00
2008,05,16,08,55,17.10
2008,05,16,08,56,17.30
2008,05,16,08,57,17.30
2008,05,16,08,58,17.20
2008,05,16,08,59,17.20
2008,05,16,09,00,17.20
2008,05,16,09,01,17.30
2008,05,16,09,02,17.30
2008,05,16,09,03,17.30
2008,05,16,09,04,17.30
2008,05,16,09,05,17.30
2008,05,16,09,06,17.30
2008,05,16,09,07,17.30
2008,05,16,09,08,17.40
2008,05,16,09,09,17.50
2008,05,16,09,10,17.50
2008,05,16,09,11,17.60
2008,05,16,09,12,17.60
2008,05,16,09,13,17.60
2008,05,16,09,14,17.60
2008,05,16,09,15,17.60
2008,05,16,09,16,17.50
2008,05,16,09,17,17.50
2008,05,16,09,18,17.50
2008,05,16,09,19,17.60
2008,05,16,09,20,17.60
2008,05,16,09,21,17.60
2008,05,16,09,22,17.70
2008,05,16,09,23,17.80
2008,05,16,09,24,17.80
2008,05,16,09,25,17.80
2008,05,16,09,26,17.90
2008,05,16,09,27,17.90
2008,05,16,09,28,18.00
2008,05,16,09,29,18.10
2008,05,16,09,30,18.20
2008,05,16,09,31,18.20
2008,05,16,09,32,18.20
2008,05,16,09,33,18.30
2008,05,16,09,34,18.30
2008,05,16,09,35,18.30
2008,05,16,09,36,18.20
2008,05,16,09,37,18.00
2008,05,16,09,38,17.90
2008,05,16,09,39,17.90
2008,05,16,09,40,17.90
2008,05,16,09,41,17.90
2008,05,16,09,42,18.00
2008,05,16,09,43,18.10
2008,05,16,09,44,18.00
2008,05,16,09,45,18.00
2008,05,16,09,46,18.10
2008,05,16,09,47,18.10
2008,05,16,09,48,18.10
2008,05,16,09,49,18.10
2008,05,16,09,50,18.10
2008,05,16,09,51,18.20
2008,05,16,09,52,18.20
2008,05,16,09,53,18.30
2008,05,16,09,54,18.50
2008,05,16,09,55,18.50
2008,05,16,09,56,18.50
2008,05,16,09,57,18.60
2008,05,16,09,58,18.70
2008,05,16,09,59,18.70
2008,05,16,10,00,18.70
2008,05,16,10,01,18.80
2008,05,16,10,02,18.90
2008,05,16,10,03,18.80
2008,05,16,10,04,18.80
2008,05,16,10,05,18.70
2008,05,16,10,06,18.70
2008,05,16,10,07,18.80
2008,05,16,10,08,18.80
2008,05,16,10,09,18.90
2008,05,16,10,10,18.90
2008,05,16,10,11,18.90
2008,05,16,10,12,18.70
2008,05,16,10,13,18.60
2008,05,16,10,14,18.60
2008,05,16,10,15,18.70
2008,05,16,10,16,18.70
2008,05,16,10,17,18.70
2008,05,16,10,18,18.80
2008,05,16,10,19,18.70
2008,05,16,10,20,18.70
2008,05,16,10,21,18.60
2008,05,16,10,22,18.60
2008,05,16,10,23,18.60
2008,05,16,10,24,18.70
2008,05,16,10,25,18.70
2008,05,16,10,26,18.80
2008,05,16,10,27,18.90
2008,05,16,10,28,19.00
2008,05,16,10,29,19.10
2008,05,16,10,30,19.20
2008,05,16,10,31,19.30
2008,05,16,10,32,19.30
2008,05,16,10,33,19.40
2008,05,16,10,34,19.40
2008,05,16,10,35,19.40
2008,05,16,10,36,19.40
2008,05,16,10,37,19.50
2008,05,16,10,38,19.50
2008,05,16,10,39,19.50
2008,05,16,10,40,19.40
2008,05,16,10,41,19.40
2008,05,16,10,42,19.40
2008,05,16,10,43,19.40
2008,05,16,10,44,19.40
2008,05,16,10,45,19.40
2008,05,16,10,46,19.40
2008,05,16,10,47,19.40
2008,05,16,10,48,19.40
2008,05,16,10,49,19.50
2008,05,16,10,50,19.50
2008,05,16,10,51,19.50
2008,05,16,10,52,19.40
2008,05,16,10,53,19.40
2008,05,16,10,54,19.30
2008,05,16,10,55,19.30
2008,05,16,10,56,19.30
2008,05,16,10,57,19.30
2008,05,16,10,58,19.20
2008,05,16,10,59,19.10
2008,05,16,11,00,19.10
2008,05,16,11,01,19.20
2008,05,16,11,02,19.20
2008,05,16,11,03,19.30
2008,05,16,11,04,19.40
2008,05,16,11,05,19.50
2008,05,16,11,06,19.60
2008,05,16,11,07,19.60
2008,05,16,11,08,19.60
2008,05,16,11,09,19.60
2008,05,16,11,10,19.70
2008,05,16,11,11,19.80
2008,05,16,11,12,19.90
2008,05,16,11,13,19.90
2008,05,16,11,14,20.00
2008,05,16,11,15,20.10
2008,05,16,11,16,20.10
2008,05,16,11,17,20.10
2008,05,16,11,18,20.20
2008,05,16,11,19,20.20
2008,05,16,11,20,20.30
2008,05,16,11,21,20.40
2008,05,16,11,22,20.40
2008,05,16,11,23,20.40
2008,05,16,11,24,20.40
2008,05,16,11,25,20.50
2008,05,16,11,26,20.60
2008,05,16,11,27,20.70
2008,05,16,11,28,20.80
2008,05,16,11,29,20.80
2008,05,16,11,30,20.90
2008,05,16,11,31,20.90
2008,05,16,11,32,20.90
2008,05,16,11,33,20.90
2008,05,16,11,34,20.90
2008,05,16,11,35,21.00
2008,05,16,11,36,21.10
2008,05,16,11,37,21.10
2008,05,16,11,38,21.20
2008,05,16,11,39,21.20
2008,05,16,11,40,21.20
2008,05,16,11,41,21.20
2008,05,16,11,42,21.20
2008,05,16,11,43,21.20
2008,05,16,11,44,21.10
2008,05,16,11,45,21.10
2008,05,16,11,46,21.10
2008,05,16,11,47,21.10
2008,05,16,11,48,21.10
2008,05,16,11,49,21.00
2008,05,16,11,50,21.00
2008,05,16,11,51,20.90
2008,05,16,11,52,21.00
2008,05,16,11,53,21.10
2008,05,16,11,54,21.10
2008,05,16,11,55,21.20
2008,05,16,11,56,21.30
2008,05,16,11,57,21.50
2008,05,16,11,58,21.60
2008,05,16,11,59,21.60
2008,05,16,12,00,21.70
2008,05,16,12,01,21.70
2008,05,16,12,02,21.80
2008,05,16,12,03,21.80
2008,05,16,12,04,21.80
2008,05,16,12,05,21.80
2008,05,16,12,06,21.80
2008,05,16,12,07,21.80
2008,05,16,12,08,21.70
2008,05,16,12,09,21.60
2008,05,16,12,10,21.60
2008,05,16,12,11,21.60
2008,05,16,12,12,21.60
2008,05,16,12,13,21.60
2008,05,16,12,14,21.60
2008,05,16,12,15,21.70
2008,05,16,12,16,21.70
2008,05,16,12,17,21.80
2008,05,16,12,18,22.00
2008,05,16,12,19,22.00
2008,05,16,12,20,22.10
2008,05,16,12,21,22.10
2008,05,16,12,22,22.10
2008,05,16,12,23,22.00
2008,05,16,12,24,22.00
2008,05,16,12,25,22.00
2008,05,16,12,26,22.10
2008,05,16,12,27,22.10
2008,05,16,12,28,22.10
2008,05,16,12,29,22.20
2008,05,16,12,30,22.20
2008,05,16,12,31,22.20
2008,05,16,12,32,22.20
2008,05,16,12,33,22.20
2008,05,16,12,34,22.30
2008,05,16,12,35,22.30
2008,05,16,12,36,22.40
2008,05,16,12,37,22.40
2008,05,16,12,38,22.50
2008,05,16,12,39,22.60
2008,05,16,12,40,22.60
2008,05,16,12,41,22.70
2008,05,16,12,42,22.80
2008,05,16,12,43,22.80
2008,05,16,12,44,22.70
2008,05,16,12,45,22.60
2008,05,16,12,46,22.50
2008,05,16,12,47,22.50
2008,05,16,12,48,22.50
2008,05,16,12,49,22.50
2008,05,16,12,50,22.40
2008,05,16,12,51,22.30
2008,05,16,12,52,22.30
2008,05,16,12,53,22.20
2008,05,16,12,54,22.20
2008,05,16,12,55,22.20
2008,05,16,12,56,22.20
2008,05,16,12,57,22.20
2008,05,16,12,58,22.30
2008,05,16,12,59,22.40
2008,05,16,13,00,22.40
2008,05,16,13,01,22.40
2008,05,16,13,02,22.40
2008,05,16,13,03,22.40
2008,05,16,13,04,22.40
2008,05,16,13,05,22.40
2008,05,16,13,06,22.40
2008,05,16,13,07,22.30
2008,05,16,13,08,22.20
2008,05,16,13,09,22.20
2008,05,16,13,10,22.30
2008,05,16,13,11,22.40
2008,05,16,13,12,22.40
2008,05,16,13,13,22.50
2008,05,16,13,14,22.50
2008,05,16,13,15,22.60
2008,05,16,13,16,22.60
2008,05,16,13,17,22.50
2008,05,16,13,18,22.50
2008,05,16,13,19,22.40
2008,05,16,13,20,22.30
2008,05,16,13,21,22.30
2008,05,16,13,22,22.40
2008,05,16,13,23,22.40
2008,05,16,13,24,22.40
2008,05,16,13,25,22.40
2008,05,16,13,26,22.40
2008,05,16,13,27,22.40
2008,05,16,13,28,22.50
2008,05,16,13,29,22.50
2008,05,16,13,30,22.50
2008,05,16,13,31,22.50
2008,05,16,13,32,22.60
2008,05,16,13,33,22.60
2008,05,16,13,34,22.70
2008,05,16,13,35,22.70
2008,05,16,13,36,22.80
2008,05,16,13,37,22.90
2008,05,16,13,38,22.90
2008,05,16,13,39,23.00
2008,05,16,13,40,23.10
2008,05,16,13,41,23.10
2008,05,16,13,42,23.10
2008,05,16,13,43,23.00
2008,05,16,13,44,23.10
2008,05,16,13,45,23.10
2008,05,16,13,46,23.10
2008,05,16,13,47,23.10
2008,05,16,13,48,23.00
2008,05,16,13,49,22.90
2008,05,16,13,50,22.90
2008,05,16,13,51,22.90
2008,05,16,13,52,22.90
2008,05,16,13,53,22.80
2008,05,16,13,54,22.70
2008,05,16,13,55,22.70
2008,05,16,13,56,22.70
2008,05,16,13,57,22.70
2008,05,16,13,58,22.70
2008,05,16,13,59,22.80
2008,05,16,14,00,22.90
2008,05,16,14,01,22.80
2008,05,16,14,02,22.80
2008,05,16,14,03,22.80
2008,05,16,14,04,22.80
2008,05,16,14,05,22.70
2008,05,16,14,06,22.60
2008,05,16,14,07,22.50
2008,05,16,14,08,22.40
2008,05,16,14,09,22.30
2008,05,16,14,10,22.30
2008,05,16,14,11,22.30
2008,05,16,14,12,22.30
2008,05,16,14,13,22.30
2008,05,16,14,14,22.40
2008,05,16,14,15,22.50
2008,05,16,14,16,22.40
2008,05,16,14,17,22.40
2008,05,16,14,18,22.50
2008,05,16,14,19,22.60
2008,05,16,14,20,22.60
2008,05,16,14,21,22.70
2008,05,16,14,22,22.80
2008,05,16,14,23,23.00
2008,05,16,14,24,23.20
2008,05,16,14,25,23.30
2008,05,16,14,26,23.30
2008,05,16,14,27,23.30
2008,05,16,14,28,23.40
2008,05,16,14,29,23.50
2008,05,16,14,30,23.70
2008,05,16,14,31,23.80
2008,05,16,14,32,23.90
2008,05,16,14,33,23.90
2008,05,16,14,34,23.90
2008,05,16,14,35,24.00
2008,05,16,14,36,24.10
2008,05,16,14,37,24.10
2008,05,16,14,38,24.10
2008,05,16,14,39,24.10
2008,05,16,14,40,24.10
2008,05,16,14,41,24.10
2008,05,16,14,42,24.10
2008,05,16,14,43,24.10
2008,05,16,14,44,24.10
2008,05,16,14,45,24.10
2008,05,16,14,46,24.10
2008,05,16,14,47,24.20
2008,05,16,14,48,24.20
2008,05,16,14,49,24.30
2008,05,16,14,50,24.30
2008,05,16,14,51,24.40
2008,05,16,14,52,24.40
2008,05,16,14,53,24.40
2008,05,16,14,54,24.50
2008,05,16,14,55,24.50
2008,05,16,14,56,24.60
2008,05,16,14,57,24.50
2008,05,16,14,58,24.50
2008,05,16,14,59,24.50
2008,05,16,15,00,24.50
2008,05,16,15,01,24.30
2008,05,16,15,02,24.30
2008,05,16,15,03,24.40
2008,05,16,15,04,24.50
2008,05,16,15,05,24.50
2008,05,16,15,06,24.50
2008,05,16,15,07,24.40
2008,05,16,15,08,24.40
2008,05,16,15,09,24.30
2008,05,16,15,10,24.30
2008,05,16,15,11,24.20
2008,05,16,15,12,24.20
2008,05,16,15,13,24.20
2008,05,16,15,14,24.30
2008,05,16,15,15,24.30
2008,05,16,15,16,24.40
2008,05,16,15,17,24.40
2008,05,16,15,18,24.50
2008,05,16,15,19,24.50
2008,05,16,15,20,24.60
2008,05,16,15,21,24.70
2008,05,16,15,22,24.80
2008,05,16,15,23,24.80
2008,05,16,15,24,24.90
2008,05,16,15,25,24.90
2008,05,16,15,26,24.90
2008,05,16,15,27,24.90
2008,05,16,15,28,24.90
2008,05,16,15,29,25.00
2008,05,16,15,30,25.00
2008,05,16,15,31,25.10
2008,05,16,15,32,25.10
2008,05,16,15,33,25.10
2008,05,16,15,34,25.10
2008,05,16,15,35,25.10
2008,05,16,15,36,25.00
2008,05,16,15,37,25.10
2008,05,16,15,38,25.00
2008,05,16,15,39,24.90
2008,05,16,15,40,25.00
2008,05,16,15,41,25.10
2008,05,16,15,42,25.20
2008,05,16,15,43,25.30
2008,05,16,15,44,25.40
2008,05,16,15,45,25.50
2008,05,16,15,46,25.50
2008,05,16,15,47,25.50
2008,05,16,15,48,25.40
2008,05,16,15,49,25.40
2008,05,16,15,50,25.50
2008,05,16,15,51,25.50
2008,05,16,15,52,25.50
2008,05,16,15,53,25.60
2008,05,16,15,54,25.60
2008,05,16,15,55,25.60
2008,05,16,15,56,25.70
2008,05,16,15,57,25.60
2008,05,16,15,58,25.60
2008,05,16,15,59,25.50
2008,05,16,16,00,25.50
2008,05,16,16,01,25.50
2008,05,16,16,02,25.60
2008,05,16,16,03,25.60
2008,05,16,16,04,25.60
2008,05,16,16,05,25.50
2008,05,16,16,06,25.50
2008,05,16,16,07,25.40
2008,05,16,16,08,25.50
2008,05,16,16,09,25.60
2008,05,16,16,10,25.60
2008,05,16,16,11,25.60
2008,05,16,16,12,25.60
2008,05,16,16,13,25.70
2008,05,16,16,14,25.70
2008,05,16,16,15,25.70
2008,05,16,16,16,25.70
2008,05,16,16,17,25.60
2008,05,16,16,18,25.50
2008,05,16,16,19,25.50
2008,05,16,16,20,25.50
2008,05,16,16,21,25.50
2008,05,16,16,22,25.60
2008,05,16,16,23,25.70
2008,05,16,16,24,25.80
2008,05,16,16,25,25.80
2008,05,16,16,26,25.90
2008,05,16,16,27,26.00
2008,05,16,16,28,26.00
2008,05,16,16,29,25.90
2008,05,16,16,30,25.90
2008,05,16,16,31,25.90
2008,05,16,16,32,25.90
2008,05,16,16,33,25.90
2008,05,16,16,34,25.90
2008,05,16,16,35,25.90
2008,05,16,16,36,25.90
2008,05,16,16,37,25.90
2008,05,16,16,38,25.90
2008,05,16,16,39,25.90
2008,05,16,16,40,26.00
2008,05,16,16,41,26.00
2008,05,16,16,42,26.00
2008,05,16,16,43,26.00
2008,05,16,16,44,26.00
2008,05,16,16,45,26.00
2008,05,16,16,46,26.00
2008,05,16,16,47,26.10
2008,05,16,16,48,26.20
2008,05,16,16,49,26.20
2008,05,16,16,50,26.20
2008,05,16,16,51,26.10
2008,05,16,16,52,26.20
2008,05,16,16,53,26.10
2008,05,16,16,54,26.10
2008,05,16,16,55,26.20
2008,05,16,16,56,26.20
2008,05,16,16,57,26.20
2008,05,16,16,58,26.20
2008,05,16,16,59,26.20
2008,05,16,17,00,26.20
2008,05,16,17,01,26.20
2008,05,16,17,02,26.20
2008,05,16,17,03,26.20
2008,05,16,17,04,26.20
2008,05,16,17,05,26.30
2008,05,16,17,06,26.30
2008,05,16,17,07,26.30
2008,05,16,17,08,26.40
2008,05,16,17,09,26.40
2008,05,16,17,10,26.50
2008,05,16,17,11,26.60
2008,05,16,17,12,26.60
2008,05,16,17,13,26.60
2008,05,16,17,14,26.70
2008,05,16,17,15,26.70
2008,05,16,17,16,26.80
2008,05,16,17,17,26.80
2008,05,16,17,18,26.80
2008,05,16,17,19,26.80
2008,05,16,17,20,26.80
2008,05,16,17,21,26.70
2008,05,16,17,22,26.60
2008,05,16,17,23,26.60
2008,05,16,17,24,26.60
2008,05,16,17,25,26.70
2008,05,16,17,26,26.70
2008,05,16,17,27,26.80
2008,05,16,17,28,26.80
2008,05,16,17,29,26.80
2008,05,16,17,30,26.80